Regional Weather Roundup
Issued by NWS Charleston, SC

Current Version | Previous Version | Text Only | Print | Product List | Glossary On
Versions: 1 2 3 4 5 6 7 8 9 10 11 12 13 14 15 16 17 18 19 20 21 22 23 24 25 26 27 28 29 30 31 32 33 34 35 36 37 38 39 40 41 42 43 44 45 46 47 48 49 50
196
ASUS42 KCHS 281428
RWRCHS

REGIONAL WEATHER ROUNDUP
NATIONAL WEATHER SERVICE CHARLESTON SC
1000 AM EDT THU JUL 28 2016

NOTE: "FAIR" INDICATES FEW OR NO CLOUDS BELOW 12,000 FEET WITH NO
SIGNIFICANT WEATHER AND/OR OBSTRUCTIONS TO VISIBILITY.

NOT ALL STATIONS ARE QUALITY CONTROLLED. USE DATA WITH CAUTION...
ESPECIALLY DEWPOINT OBSERVATIONS.

SCZ027-030-031-034>040-042>050-281500-
...SOUTHEAST SOUTH CAROLINA...

CITY           SKY/WX    TMP DP  RH WIND       PRES   REMARKS
N CHARLESTON   SUNNY     89  72  56 NW10      30.02S HX  96
WATERFRONT PRK   N/A     87  74  65 VRB3      30.01R HX  95
MOUNT PLEASANT FAIR      90  73  58 NW10      30.02S HX  98
JOHNS ISLAND   FAIR      91  75  59 W10G16    30.02F HX 102
PINOPOLIS        N/A     84  73  70 NW7       29.95R HX  91
MONCKS CORNER  FAIR      84  70  61 NW3       30.01F
SUMMERVILLE    FAIR      90  73  58 W6        30.03S HX  98
BEAUFORT MCAS  SUNNY     90  72  55 NW10      30.03S HX  97
BEAUFORT ARPT  FAIR      88  73  62 W10       30.03S HX  96
HILTON HEAD IS SUNNY     86  72  62 SW7       30.04S HX  92
WALTERBORO     SUNNY     90  70  51 W9        30.03S HX  95
ALLENDALE      FAIR      88  73  62 VRB5      30.02S HX  96

...SOUTHERN MIDLANDS AND PEE DEE...

CITY           SKY/WX    TMP DP  RH WIND       PRES   REMARKS
GEORGETOWN     FAIR      86  72  62 W8        30.01F HX  92
KINGSTREE      FAIR      88  70  55 W7G16     30.00F HX  92
ORANGEBURG     SUNNY     87  71  58 W12       30.02S HX  93
BARNWELL       NOT AVBL
AIKEN          FAIR      86  70  58 W9        30.05F HX  90
MANNING        FAIR      88  70  55 W6        30.01S HX  92
COLUMBIA       SUNNY     90  69  50 W15       29.99F HX  94
SUMTER         SUNNY     87  71  58 W12       29.98S HX  92
FLORENCE       SUNNY     88  71  57 W10       29.99S HX  94
MYRTLE BEACH   SUNNY     90  70  51 W12       30.01S HX  95
N MYRTLE BEACH SUNNY     89  72  56 W8        29.98S HX  96

$$

GAZ063-065-086>088-099>101-113>116-118-119-134>141-150-281500-
...SOUTHEAST GEORGIA...

CITY           SKY/WX    TMP DP  RH WIND       PRES   REMARKS
SAVANNAH ARPT  SUNNY     88  72  58 W8        30.04S HX  94
HUNTER AAF     SUNNY     88  77  69 NW7       30.02S HX  99
FORT STEWART   NOT AVBL
STATESBORO     SUNNY     87  76  68 W7        30.04S HX  97
SYLVANIA       NOT AVBL
CLAXTON        FAIR      88  75  65 SW7       30.05S HX  97

...CSRA...CENTRAL AND FAR SOUTHEAST GEORGIA...

CITY           SKY/WX    TMP DP  RH WIND       PRES   REMARKS
THOMSON        NOT AVBL
AUGUSTA-BUSH   SUNNY     87  71  58 SW12G18   30.01S HX  93
AUGUSTA-DANIEL SUNNY     86  70  58 W8        30.03F HX  90
SWAINSBORO     FAIR      86  70  58 W8        30.06S HX  90
VIDALIA        SUNNY     88  70  55 W8        30.06S HX  92
EASTMAN        FAIR      87  64  46 W5        30.08F
HAZLEHURST     FAIR      89  75  63 CALM      30.06S HX  98
ALMA           SUNNY     86  73  65 W6        30.07S HX  93
WAYCROSS       SUNNY     91  77  63 NW6       30.07S HX 103
JESUP          FAIR      90  79  70 W5        30.06S HX 105
BAXLEY         FAIR      88  77  70 NW5       30.06S HX 100
BRUNSWICK      SUNNY     90  77  66 W6        30.07S HX 102
SAINT SIMONS   SUNNY     88  74  63 VRB7      30.06R HX  96

$$

SCZ027-028-034-036>038-045-046-048>050-GAZ119-141-281500-
...LAKE AND SUPPLEMENTAL COASTAL OBSERVATIONS...

STATION/POSITION TIME  TEMP    WIND        PRES    WAVE   SWELL
                       AIR SEA DIR/SP/G            HT/PER HT/PER/DIR
                 (UTC) (F)     (DEG/KT/KT) (MB)    (FT/S) (FT/S/D)
WINYAH BAY       1300   85     280/  8     1015.0
LAKE MURRAY      1300   83     270/ 14/ 16 1015.2S
ACE BASIN NERRS  1300   85     270/  2     1017.0S
FORT PULASKI     1400   86 87  290/  9/ 10 1017.5S
SAPELO ISLAND    1400   88     300/  6     1018.0S

$$

ANZ835-935-AMZ111-154-330-350-352-354-370-450-454-472-281500-
...C-MAN AND BUOY OBSERVATIONS...

STATION/POSITION TIME  TEMP    WIND        PRES    WAVE   SWELL
                       AIR SEA DIR/SP/G            HT/PER HT/PER/DIR
                 (UTC) (F)     (DEG/KT/KT) (MB)    (FT/S) (FT/S/D)
BUOY 41004       1350   86 86  270/ 12/ 14 1016.0S   4/ 6   3/220/ 6
BUOY 41008       1350   84 86  300/ 10/ 12 1017.4R   2/ 5   2/160/ 5
FOLLY BEACH CMAN 1400   88     300/  6/ 10 1016.8R
CAPERS NEARSHORE 1308   84 83  290/  6/ 10 1016.4R
FRIPP NEARSHORE  1408   86 87  300/ 12/ 14 1016.4S


STATION/POSITION TIME  TEMP    WIND        PRES    WAVE   SWELL
                       AIR SEA DIR/SP/G            HT/PER HT/PER/DIR
                 (UTC) (F)     (DEG/KT/KT) (MB)    (FT/S) (FT/S/D)
5E ST. MARYS GA  1401      86                N/A     2/ 8
FRYING PAN BUOY  1400   85 85  260/ 12/ 16 1015.3S
BUOY 41025       1350   85 84  230/ 12/ 14 1014.2F   2/ 5   2/210/ 6
CAPE LOOKOUT NC  1400   85     250/ 10/ 12 1014.1F
BUOY 41002       1350   84 84  270/  8/ 10 1017.1F   3/ 5   3/270/ 5
BUOY 41010       1320   85 87  230/  8/ 10 1018.7R
ST AUGUSTINE FL  1400   85 84  360/  8/  9 1019.2S


$$




USA.gov is the U.S. government's official web portal to all federal, state and local government web resources and services.